Location: Nashville
(36.1660°N, 86.7840°W)
Time: 20:23:08
(UTC-05:00)

Tiros 1 - Pass Details

Date: 28 January 2022
Orbit: 629 x 663 km, 48.4° (Epoch: 27 May)

Event Time Altitude Azimuth Distance (km) Brightness Sun altitude
Exits shadow 04:06:06 14° 145° (SE) 1,794 9.7 -33.4°
Drops below altitude 10° 04:06:44 10° 144° (SE) 2,030 10.0 -33.2°
Sets 04:09:04 0° 140° (SE) 2,931 11.0 -32.8°
